ARIANE 44LP R/B, 19689

Orbit data source: Space-Track

ARIANE 44LP R/B, 19689 is space debris in HEO originally from a launch on Sun, 11 Dec 1988 UTC launched from the French Guiana (FRGUI). Debris objects in space refer to the collection of defunct objects orbiting the Earth. Examples of debris include non-operational satellites, rocket bodies, and fragments generated from explosions, collisions, or faulty payload assembly.

Loading next visibility...
Identifier
19689, 1988-109C
Orbit
HEO
Country
Flag of FRFR
Related business
Manufacturer
Ae/LesM
Mission
Spacecraft
Bus & Motor
ARIANE H10, Unknown motor
Mass
2,260 kg wet, 2,080 kg dry
Launch date (UTC)
1988-12-11 (38 years ago)
Launch vehicle
Unknown
Launch site
French Guiana (FRGUI)
Object type
Payload
Rocket body
Debris
Shape & HBR
Cyl, 7.0 m
Radar Cross Section
31.447 m², Large (>1 m²)

Expand to show TLE details & history
Last TLE update: 2 days ago

TLE from 2 days ago
0 ARIANE 44LP R/B
1 19689U 88109C   26171.13618544  .00000195  00000-0  95700-3 0  9997
2 19689   6.7634 251.9939 7192994  24.6245 357.1167  2.30242531278192
Epoch: 2026-06-20T03:16Z
TLE epoch observation values (Epoch: 2026-06-20T03:16:06.422Z)
Latitude
-0.00006°
Longitude
-65.29067°
Altitude
665.376 km
Speed
9.834 km/s
True Right ascension
16h 48m 21s
True Declination
0° 00' 00"
Sunlit
Object was in full shadow at epoch
Visualization orbit readout
Latitude
Unknown
Longitude
Unknown
Altitude
Unknown
Speed
Unknown
Apparent Right ascension
Unknown
Apparent Declination
Unknown
Sunlit
N/A
Visualization observer readout
Local Sidereal Time
23:27:17
Azimuth
Unknown
Elevation
Unknown
Doppler factor
Unknown
Orbital elements
Apogee altitude
35,282.423 km
Perigee altitude
423.555 km
Semi-major axis
24,231.126 km
Eccentricity
0.7193
Inclination
6.7634°
RAAN
251.9939°
Arg. of periapsis
24.6245°
True anomaly
335.24036°
Mean anomaly
357.1167°
Eccentric anomaly
349.86349°
Mean motion
0.57542 °/min
Orbital period
625.63 mins
BSTAR
0.000957
Loading maneuver chart data...
Computing Atmospheric mass density...
Loading historical data...
Loading historical data...
Loading historical data...
Loading historical data...
Loading historical data...
Loading historical data...
Loading historical data...

Documentation

Showing up to 5 results
|